OK1VCF-8 Weather Reports


time (UTC)temp
F
wind
direction
speed
knots
gust
knots
rain 1hr
in
rain 24hr
in
rain mn
in
humidity
%
barometer
mb
20260831132033 78 0 0.0 0.0 0.00 0.00 0.00 50 1016.6
20260831131315 77 0 0.0 0.0 0.00 0.00 0.00 51 1016.6
20260831130555 76 0 0.0 0.0 0.00 0.00 0.00 52 1016.6
20260831125832 76 0 0.0 0.0 0.00 0.00 0.00 50 1016.7
20260831125106 78 0 0.0 0.0 0.00 0.00 0.00 48 1016.8
20260831124050 78 0 0.0 0.0 0.00 0.00 0.00 50 1016.8
20260831123322 76 0 0.0 0.0 0.00 0.00 0.00 52 1016.7
20260831122556 74 0 0.0 0.0 0.00 0.00 0.00 54 1016.6
20260831121823 74 0 0.0 0.0 0.00 0.00 0.00 58 1016.8
20260831121054 76 0 0.0 0.0 0.00 0.00 0.00 54 1016.7
20260831120317 75 0 0.0 0.0 0.00 0.00 0.00 55 1016.6
20260831115534 74 0 0.0 0.0 0.00 0.00 0.00 56 1016.8
20260831114759 74 0 0.0 0.0 0.00 0.00 0.00 58 1016.7
20260831114024 74 0 0.0 0.0 0.00 0.00 0.00 58 1016.8
20260831113256 76 0 0.0 0.0 0.00 0.00 0.00 59 1016.8
20260831112528 76 0 0.0 0.0 0.00 0.00 0.00 60 1016.8
20260831111802 75 0 0.0 0.0 0.00 0.00 0.00 62 1016.8
20260831111038 74 0 0.0 0.0 0.00 0.00 0.00 64 1017.0
20260831110319 74 0 0.0 0.0 0.00 0.00 0.00 64 1017.0
20260831105559 74 0 0.0 0.0 0.00 0.00 0.00 65 1017.0
20260831104556 73 0 0.0 0.0 0.00 0.00 0.00 68 1017.0
20260831103836 74 0 0.0 0.0 0.00 0.00 0.00 67 1017.0
20260831103118 74 0 0.0 0.0 0.00 0.00 0.00 69 1017.0
20260831102359 72 0 0.0 0.0 0.00 0.00 0.00 72 1017.0
20260831101640 74 0 0.0 0.0 0.00 0.00 0.00 70 1016.9
20260831100921 74 0 0.0 0.0 0.00 0.00 0.00 73 1016.8
20260831100201 74 0 0.0 0.0 0.00 0.00 0.00 74 1017.0
20260831095441 72 0 0.0 0.0 0.00 0.00 0.00 78 1017.1
20260831094723 72 0 0.0 0.0 0.00 0.00 0.00 76 1017.0
20260831094003 74 0 0.0 0.0 0.00 0.00 0.00 74 1017.0
20260831093245 73 0 0.0 0.0 0.00 0.00 0.00 75 1017.0
20260831092528 72 0 0.0 0.0 0.00 0.00 0.00 77 1017.0
20260831091810 71 0 0.0 0.0 0.00 0.00 0.00 78 1017.1
20260831091052 70 0 0.0 0.0 0.00 0.00 0.00 80 1017.1
20260831090334 69 0 0.0 0.0 0.00 0.00 0.00 84 1017.0
20260831085331 68 0 0.0 0.0 0.00 0.00 0.00 90 1017.0
20260831084614 66 0 0.0 0.0 0.00 0.00 0.00 91 1016.9
20260831083855 65 0 0.0 0.0 0.00 0.00 0.00 92 1016.7
20260831083137 64 0 0.0 0.0 0.00 0.00 0.00 92 1016.8
20260831082419 64 0 0.0 0.0 0.00 0.00 0.00 92 1016.7
20260831081700 64 0 0.0 0.0 0.00 0.00 0.00 93 1016.6
20260831080941 64 0 0.0 0.0 0.00 0.00 0.00 93 1016.3
20260831074759 62 0 0.0 0.0 0.00 0.00 0.00 94 1016.0
20260831074040 62 0 0.0 0.0 0.00 0.00 0.00 94 1016.0
20260831073321 62 0 0.0 0.0 0.00 0.00 0.00 94 1015.9
20260831072601 62 0 0.0 0.0 0.00 0.00 0.00 94 1016.2
20260831071840 62 0 0.0 0.0 0.00 0.00 0.00 94 1016.2
20260831071119 61 0 0.0 0.0 0.00 0.00 0.00 94 1016.4
20260831070109 60 0 0.0 0.0 0.00 0.00 0.00 93 1016.6
20260831065344 60 0 0.0 0.0 0.00 0.00 0.00 93 1017.0
20260831064620 60 0 0.0 0.0 0.00 0.00 0.00 92 1016.9
20260831063849 61 0 0.0 0.0 0.00 0.00 0.00 92 1016.7
20260831063127 61 0 0.0 0.0 0.00 0.00 0.00 90 1017.1
20260831062402 62 0 0.0 0.0 0.00 0.00 0.00 88 1016.5
20260831061638 66 0 0.0 0.0 0.00 0.00 0.00 77 1015.2
20260831060916 66 0 0.0 0.0 0.00 0.00 0.00 77 1014.6
20260831060152 66 0 0.0 0.0 0.00 0.00 0.00 77 1014.6
20260831055428 66 0 0.0 0.0 0.00 0.00 0.00 78 1014.6
20260831054706 66 0 0.0 0.0 0.00 0.00 0.00 77 1014.4
20260831053948 66 0 0.0 0.0 0.00 0.00 0.00 77 1014.8
20260831053231 66 0 0.0 0.0 0.00 0.00 0.00 78 1014.7
20260831052511 65 0 0.0 0.0 0.00 0.00 0.00 78 1014.8
20260831051755 64 0 0.0 0.0 0.00 0.00 0.00 79 1014.8
20260831050753 64 0 0.0 0.0 0.00 0.00 0.00 79 1014.8
20260831050033 64 0 0.0 0.0 0.00 0.00 0.00 80 1014.8
20260831045314 64 0 0.0 0.0 0.00 0.00 0.00 80 1014.9
20260831044555 64 0 0.0 0.0 0.00 0.00 0.00 81 1015.0
20260831043838 63 0 0.0 0.0 0.00 0.00 0.00 82 1014.9
20260831043119 62 0 0.0 0.0 0.00 0.00 0.00 84 1014.8
20260831042400 62 0 0.0 0.0 0.00 0.00 0.00 83 1014.8
20260831041642 62 0 0.0 0.0 0.00 0.00 0.00 84 1014.8
20260831040925 63 0 0.0 0.0 0.00 0.00 0.00 83 1015.1
20260831040207 62 0 0.0 0.0 0.00 0.00 0.00 84 1015.2
20260831035449 62 0 0.0 0.0 0.00 0.00 0.00 84 1015.0
20260831034732 62 0 0.0 0.0 0.00 0.00 0.00 84 1015.0
20260831034013 62 0 0.0 0.0 0.00 0.00 0.00 84 1015.2
20260831033257 62 0 0.0 0.0 0.00 0.00 0.00 84 1015.2
20260831032539 62 0 0.0 0.0 0.00 0.00 0.00 83 1015.2
20260831031537 62 0 0.0 0.0 0.00 0.00 0.00 84 1015.6
20260831030820 62 0 0.0 0.0 0.00 0.00 0.00 84 1015.6
20260831025344 62 0 0.0 0.0 0.00 0.00 0.00 83 1015.6
20260831024627 64 0 0.0 0.0 0.00 0.00 0.00 82 1015.8
20260831023909 63 0 0.0 0.0 0.00 0.00 0.00 82 1015.7
20260831023153 64 0 0.0 0.0 0.00 0.00 0.00 82 1015.9
20260831022435 64 0 0.0 0.0 0.00 0.00 0.00 81 1016.0
20260831021718 64 0 0.0 0.0 0.00 0.00 0.00 80 1015.9
20260831020954 64 0 0.0 0.0 0.00 0.00 0.00 82 1015.8
20260831020225 62 0 0.0 0.0 0.00 0.00 0.00 84 1015.9
20260831015500 62 0 0.0 0.0 0.00 0.00 0.00 83 1015.8
20260831014734 63 0 0.0 0.0 0.00 0.00 0.00 82 1016.0
20260831014009 62 0 0.0 0.0 0.00 0.00 0.00 84 1016.0
20260831013245 62 0 0.0 0.0 0.00 0.00 0.00 83 1016.0
20260831012234 62 0 0.0 0.0 0.00 0.00 0.00 82 1016.0
20260831011515 63 0 0.0 0.0 0.00 0.00 0.00 81 1016.0
20260831010757 64 0 0.0 0.0 0.00 0.00 0.00 79 1016.0
20260831010034 64 0 0.0 0.0 0.00 0.00 0.00 79 1016.0
20260831005306 64 0 0.0 0.0 0.00 0.00 0.00 80 1016.2
20260831004532 64 0 0.0 0.0 0.00 0.00 0.00 80 1016.2
20260831003756 64 0 0.0 0.0 0.00 0.00 0.00 79 1016.2
20260831003023 64 0 0.0 0.0 0.00 0.00 0.00 81 1016.2
20260831002249 64 0 0.0 0.0 0.00 0.00 0.00 80 1016.2
20260831001514 64 0 0.0 0.0 0.00 0.00 0.00 80 1016.2
20260831000737 64 0 0.0 0.0 0.00 0.00 0.00 80 1016.2
20260831000002 64 0 0.0 0.0 0.00 0.00 0.00 80 1016.4
20260830235225 64 0 0.0 0.0 0.00 0.00 0.00 79 1016.1
20260830234448 64 0 0.0 0.0 0.00 0.00 0.00 78 1016.2
20260830233716 66 0 0.0 0.0 0.00 0.00 0.00 76 1016.2
20260830232701 66 0 0.0 0.0 0.00 0.00 0.00 76 1016.4
20260830231934 66 0 0.0 0.0 0.00 0.00 0.00 76 1016.4
20260830231212 66 0 0.0 0.0 0.00 0.00 0.00 75 1016.3
20260830230455 66 0 0.0 0.0 0.00 0.00 0.00 74 1016.4
20260830225737 66 0 0.0 0.0 0.00 0.00 0.00 76 1016.4
20260830225019 66 0 0.0 0.0 0.00 0.00 0.00 76 1016.4
20260830224301 66 0 0.0 0.0 0.00 0.00 0.00 75 1016.5
20260830223544 67 0 0.0 0.0 0.00 0.00 0.00 74 1016.4
20260830222828 68 0 0.0 0.0 0.00 0.00 0.00 72 1016.5
20260830222111 68 0 0.0 0.0 0.00 0.00 0.00 72 1016.4
20260830221353 67 0 0.0 0.0 0.00 0.00 0.00 74 1016.4
20260830220635 66 0 0.0 0.0 0.00 0.00 0.00 74 1016.4
20260830215917 66 0 0.0 0.0 0.00 0.00 0.00 76 1016.3
20260830215200 66 0 0.0 0.0 0.00 0.00 0.00 74 1016.4
20260830214441 66 0 0.0 0.0 0.00 0.00 0.00 74 1016.4
20260830213440 66 0 0.0 0.0 0.00 0.00 0.00 72 1016.4
20260830212723 66 0 0.0 0.0 0.00 0.00 0.00 72 1016.4
20260830212005 66 0 0.0 0.0 0.00 0.00 0.00 72 1016.4
20260830211247 66 0 0.0 0.0 0.00 0.00 0.00 72 1016.5
20260830210529 67 0 0.0 0.0 0.00 0.00 0.00 71 1016.5
20260830205811 68 0 0.0 0.0 0.00 0.00 0.00 71 1016.6
20260830205054 68 0 0.0 0.0 0.00 0.00 0.00 72 1016.5
20260830204335 68 0 0.0 0.0 0.00 0.00 0.00 72 1016.6
20260830203618 68 0 0.0 0.0 0.00 0.00 0.00 71 1016.4
20260830202859 68 0 0.0 0.0 0.00 0.00 0.00 70 1016.5
20260830202141 68 0 0.0 0.0 0.00 0.00 0.00 69 1016.5
20260830201423 69 0 0.0 0.0 0.00 0.00 0.00 68 1016.5
20260830200706 69 0 0.0 0.0 0.00 0.00 0.00 67 1016.4
20260830195946 70 0 0.0 0.0 0.00 0.00 0.00 66 1016.3
20260830195227 70 0 0.0 0.0 0.00 0.00 0.00 65 1016.4
20260830194224 71 0 0.0 0.0 0.00 0.00 0.00 64 1016.4
20260830193505 70 0 0.0 0.0 0.00 0.00 0.00 64 1016.4
20260830192747 70 0 0.0 0.0 0.00 0.00 0.00 64 1016.4
20260830192028 70 0 0.0 0.0 0.00 0.00 0.00 64 1016.2
20260830191310 70 0 0.0 0.0 0.00 0.00 0.00 64 1016.2
20260830190551 70 0 0.0 0.0 0.00 0.00 0.00 64 1016.2
20260830185833 70 0 0.0 0.0 0.00 0.00 0.00 64 1016.2
20260830185116 70 0 0.0 0.0 0.00 0.00 0.00 64 1016.1
20260830184358 71 0 0.0 0.0 0.00 0.00 0.00 64 1016.1
20260830183642 71 0 0.0 0.0 0.00 0.00 0.00 62 1016.0
20260830182920 71 0 0.0 0.0 0.00 0.00 0.00 62 1015.8
20260830182203 71 0 0.0 0.0 0.00 0.00 0.00 62 1015.8
20260830181445 72 0 0.0 0.0 0.00 0.00 0.00 61 1015.8
20260830180723 72 0 0.0 0.0 0.00 0.00 0.00 61 1015.6
20260830180001 72 0 0.0 0.0 0.00 0.00 0.00 60 1015.4
20260830174958 73 0 0.0 0.0 0.00 0.00 0.00 58 1015.6
20260830174238 74 0 0.0 0.0 0.00 0.00 0.00 56 1015.5
20260830173522 74 0 0.0 0.0 0.00 0.00 0.00 55 1015.4
20260830172803 75 0 0.0 0.0 0.00 0.00 0.00 54 1015.4
20260830172043 76 0 0.0 0.0 0.00 0.00 0.00 52 1015.4
20260830171327 76 0 0.0 0.0 0.00 0.00 0.00 52 1015.3
20260830170608 77 0 0.0 0.0 0.00 0.00 0.00 50 1015.3
20260830165847 78 0 0.0 0.0 0.00 0.00 0.00 50 1015.2
20260830165129 78 0 0.0 0.0 0.00 0.00 0.00 48 1015.2
20260830164411 79 0 0.0 0.0 0.00 0.00 0.00 46 1015.2
20260830163653 80 0 0.0 0.0 0.00 0.00 0.00 45 1015.2
20260830162933 80 0 0.0 0.0 0.00 0.00 0.00 45 1015.2
20260830162215 80 0 0.0 0.0 0.00 0.00 0.00 44 1015.2
20260830161455 80 0 0.0 0.0 0.00 0.00 0.00 42 1015.2
20260830160736 82 0 0.0 0.0 0.00 0.00 0.00 42 1015.2
20260830155732 83 0 0.0 0.0 0.00 0.00 0.00 40 1015.2
20260830155013 82 0 0.0 0.0 0.00 0.00 0.00 40 1015.2
20260830154255 84 0 0.0 0.0 0.00 0.00 0.00 36 1015.2
20260830153537 88 0 0.0 0.0 0.00 0.00 0.00 36 1015.2
20260830152818 86 0 0.0 0.0 0.00 0.00 0.00 38 1015.2
20260830152059 84 0 0.0 0.0 0.00 0.00 0.00 38 1015.4
20260830151342 89 0 0.0 0.0 0.00 0.00 0.00 34 1015.4
20260830150625 82 0 0.0 0.0 0.00 0.00 0.00 41 1015.4
20260830145906 81 0 0.0 0.0 0.00 0.00 0.00 41 1015.6
20260830145146 82 0 0.0 0.0 0.00 0.00 0.00 40 1015.5
20260830144428 83 0 0.0 0.0 0.00 0.00 0.00 41 1015.4
20260830143710 82 0 0.0 0.0 0.00 0.00 0.00 42 1015.4
20260830142949 82 0 0.0 0.0 0.00 0.00 0.00 42 1015.4
20260830142232 82 0 0.0 0.0 0.00 0.00 0.00 41 1015.4
20260830141511 82 0 0.0 0.0 0.00 0.00 0.00 41 1015.6
20260830135045 80 0 0.0 0.0 0.00 0.00 0.00 43 1015.4
20260830134326 82 0 0.0 0.0 0.00 0.00 0.00 43 1015.6
20260830133607 82 0 0.0 0.0 0.00 0.00 0.00 43 1015.6
20260830132847 80 0 0.0 0.0 0.00 0.00 0.00 42 1015.7